Location: Ajisawe
(8.4333°N, 4.3833°E)
Time: 06:19:09
(UTC+00:00)

A-11 Canister half - Pass Details

Date: 19 April 2021
Orbit: 1514 x 1685 km, 47.2° (Epoch: 12 May)

Event Time Altitude Azimuth Distance (km) Brightness Sun altitude
Rises 20:20:53 0° 263° (W) 4,651 12.3 -36.3°
Reaches altitude 10° 20:25:17 10° 281° (W) 3,679 11.7 -37.3°
Maximum altitude 20:31:02 18° 321° (NW) 3,122 11.1 -38.6°
Drops below altitude 10° 20:36:54 10° 0° (N) 3,734 11.2 -40.0°
Sets 20:41:29 0° 19° (NNE) 4,749 11.6 -41.0°
